| time (UTC) | temp C | wind direction | speed KPH | gust KPH | rain 1hr cm | rain 24hr cm | rain mn cm | humidity % | barometer mb |
| 20260504044605 | 10 | 193 | 8.0 | 17.7 | 0.00 | 0.00 | 0.00 | 65 | 1005.4 |
| 20260504043053 | 11 | 194 | 4.8 | 17.7 | 0.00 | 0.00 | 0.00 | 64 | 1005.6 |
| 20260504041549 | 11 | 205 | 8.0 | 19.3 | 0.00 | 0.00 | 0.00 | 63 | 1005.6 |
| 20260504040051 | 11 | 232 | 9.7 | 25.7 | 0.00 | 0.00 | 0.00 | 63 | 1005.7 |
| 20260504034545 | 11 | 209 | 9.7 | 22.5 | 0.00 | 0.00 | 0.00 | 64 | 1005.8 |
| 20260504033043 | 10 | 213 | 9.7 | 16.1 | 0.00 | 0.00 | 0.00 | 64 | 1005.9 |
| 20260504031544 | 10 | 218 | 9.7 | 20.9 | 0.00 | 0.00 | 0.00 | 64 | 1006.1 |
| 20260504030042 | 11 | 200 | 8.0 | 19.3 | 0.00 | 0.00 | 0.00 | 63 | 1006.3 |
| 20260504024542 | 11 | 223 | 9.7 | 20.9 | 0.00 | 0.00 | 0.00 | 62 | 1006.3 |
| 20260504023042 | 11 | 225 | 11.3 | 24.1 | 0.00 | 0.00 | 0.00 | 61 | 1006.4 |
| 20260504021544 | 11 | 229 | 12.9 | 24.1 | 0.00 | 0.00 | 0.00 | 61 | 1006.5 |
| 20260504020040 | 11 | 214 | 9.7 | 16.1 | 0.00 | 0.00 | 0.00 | 62 | 1006.7 |
| 20260504014542 | 11 | 243 | 11.3 | 20.9 | 0.00 | 0.00 | 0.00 | 61 | 1006.6 |
| 20260504013051 | 12 | 208 | 11.3 | 29.0 | 0.00 | 0.00 | 0.00 | 59 | 1006.5 |
| 20260504011538 | 12 | 223 | 14.5 | 24.1 | 0.00 | 0.00 | 0.00 | 58 | 1006.4 |
| 20260504010044 | 12 | 218 | 14.5 | 27.4 | 0.00 | 0.00 | 0.00 | 57 | 1006.3 |
| 20260504004537 | 13 | 238 | 12.9 | 22.5 | 0.00 | 0.00 | 0.00 | 56 | 1006.1 |
| 20260504003038 | 13 | 231 | 9.7 | 17.7 | 0.00 | 0.00 | 0.00 | 57 | 1006.1 |
| 20260504001540 | 13 | 214 | 6.4 | 12.9 | 0.00 | 0.00 | 0.00 | 56 | 1006.1 |
| 20260504000037 | 13 | 208 | 9.7 | 17.7 | 0.00 | 0.00 | 0.00 | 55 | 1006.0 |
| 20260503234535 | 13 | 279 | 9.7 | 17.7 | 0.00 | 0.00 | 0.00 | 55 | 1005.9 |
| 20260503233037 | 13 | 226 | 9.7 | 19.3 | 0.00 | 0.00 | 0.00 | 53 | 1006.0 |
| 20260503231533 | 14 | 243 | 14.5 | 24.1 | 0.00 | 0.00 | 0.00 | 51 | 1005.9 |
| 20260503230034 | 14 | 248 | 16.1 | 27.4 | 0.00 | 0.00 | 0.00 | 50 | 1006.0 |
| 20260503224534 | 15 | 229 | 11.3 | 17.7 | 0.00 | 0.00 | 0.00 | 51 | 1006.1 |
| 20260503223031 | 15 | 238 | 14.5 | 20.9 | 0.00 | 0.00 | 0.00 | 49 | 1006.2 |
| 20260503221532 | 15 | 252 | 12.9 | 27.4 | 0.00 | 0.00 | 0.00 | 50 | 1006.2 |
| 20260503220031 | 15 | 243 | 12.9 | 25.7 | 0.00 | 0.00 | 0.00 | 50 | 1006.4 |
| 20260503214529 | 15 | 258 | 12.9 | 27.4 | 0.00 | 0.00 | 0.00 | 51 | 1006.4 |
| 20260503213028 | 16 | 227 | 19.3 | 29.0 | 0.00 | 0.00 | 0.00 | 49 | 1006.3 |
| 20260503211527 | 16 | 227 | 17.7 | 27.4 | 0.00 | 0.00 | 0.00 | 51 | 1006.3 |
| 20260503210026 | 15 | 244 | 16.1 | 30.6 | 0.00 | 0.00 | 0.00 | 51 | 1006.5 |
| 20260503204524 | 16 | 256 | 14.5 | 32.2 | 0.00 | 0.00 | 0.00 | 50 | 1006.4 |
| 20260503203024 | 15 | 244 | 20.9 | 32.2 | 0.00 | 0.00 | 0.00 | 52 | 1006.9 |
| 20260503201523 | 15 | 231 | 19.3 | 32.2 | 0.00 | 0.00 | 0.00 | 53 | 1006.9 |
| 20260503200021 | 15 | 242 | 17.7 | 30.6 | 0.00 | 0.00 | 0.00 | 52 | 1007.1 |
| 20260503194521 | 15 | 240 | 14.5 | 30.6 | 0.00 | 0.00 | 0.00 | 52 | 1007.3 |
| 20260503193019 | 15 | 209 | 19.3 | 33.8 | 0.00 | 0.00 | 0.00 | 51 | 1007.4 |
| 20260503191528 | 15 | 236 | 14.5 | 25.7 | 0.00 | 0.00 | 0.00 | 56 | 1007.7 |
| 20260503190012 | 14 | 250 | 11.3 | 24.1 | 0.00 | 0.00 | 0.00 | 59 | 1007.9 |
| 20260503184511 | 13 | 210 | 9.7 | 19.3 | 0.00 | 0.00 | 0.00 | 62 | 1008.2 |
| 20260503183008 | 12 | 221 | 9.7 | 19.3 | 0.00 | 0.00 | 0.00 | 67 | 1008.7 |
| 20260503181507 | 11 | 229 | 8.0 | 16.1 | 0.00 | 0.00 | 0.00 | 70 | 1009.1 |
| 20260503180005 | 11 | 225 | 11.3 | 35.4 | 0.00 | 0.00 | 0.00 | 66 | 1009.3 |
| 20260503174503 | 11 | 253 | 6.4 | 17.7 | 0.00 | 0.00 | 0.00 | 65 | 1009.5 |
| 20260503173003 | 12 | 238 | 8.0 | 22.5 | 0.00 | 0.00 | 0.00 | 59 | 1009.6 |
| 20260503171502 | 12 | 259 | 14.5 | 27.4 | 0.00 | 0.00 | 0.00 | 55 | 1009.6 |
| 20260503160115 | 15 | 247 | 16.1 | 32.2 | 0.00 | 0.00 | 0.00 | 47 | 1009.7 |
| 20260503081532 | 0 | 220 | 3.2 | 4.8 | 0.00 | 0.00 | 0.00 | 77 | 1013.3 |
| 20260503071527 | 1 | 220 | 1.6 | 4.8 | 0.00 | 0.00 | 0.00 | 75 | 1013.4 |
| 20260503054519 | 1 | 220 | 3.2 | 4.8 | 0.00 | 0.00 | 0.00 | 74 | 1013.9 |